This is the latest recevied weather packets stored in our database for station/object EA1AHA-13. If no packets are shown the sender has not sent any weather packets the latest 10 day(s).
| Time | Temp. | Humidity | Pressure | Rain* | Wind** | Luminosity | Snow |
|---|---|---|---|---|---|---|---|
| 1777642589 | 19.44° C | 76% | 1017 hPa | 0 mm | - | - | - |
| 1777641965 | 19.44° C | 76% | 1017.1 hPa | 0 mm | - | - | - |
| 1777641390 | 18.89° C | 77% | 1017 hPa | 0 mm | - | - | - |
| 1777640190 | 19.44° C | 76% | 1016.9 hPa | 0 mm | - | - | - |
| 1777639566 | 18.89° C | 77% | 1017 hPa | 0 mm | - | - | - |
| 1777638989 | 18.89° C | 77% | 1017.1 hPa | 0 mm | - | - | - |
| 1777638365 | 18.89° C | 79% | 1017 hPa | 0 mm | - | - | - |
| 1777637789 | 18.89° C | 76% | 1016.9 hPa | 0 mm | - | - | - |
| 1777637165 | 18.33° C | 78% | 1017 hPa | 0 mm | - | - | - |
| 1777636590 | 18.33° C | 79% | 1017.1 hPa | 0 mm | - | - | - |
| 1777635389 | 18.33° C | 77% | 1016.9 hPa | 0 mm | - | - | - |
| 1777634813 | 18.33° C | 77% | 1017 hPa | 0 mm | - | - | - |
| 1777634189 | 18.33° C | 78% | 1017.1 hPa | 0 mm | - | - | - |
| 1777633565 | 18.33° C | 79% | 1017 hPa | 0 mm | - | - | - |
| 1777632990 | 18.33° C | 76% | 1017.2 hPa | 0 mm | - | - | - |
| 1777631790 | 18.89° C | 76% | 1017.6 hPa | 0 mm | - | - | - |
| 1777630995 | 18.89° C | 75% | 1017.4 hPa | 0 mm | - | - | - |
| 1777630590 | 18.33° C | 76% | 1017.3 hPa | 0 mm | - | - | - |
| 1777629966 | 18.89° C | 74% | 1017.5 hPa | 0 mm | - | - | - |
| 1777629390 | 18.33° C | 74% | 1017.4 hPa | 0 mm | - | - | - |
| 1777628766 | 18.89° C | 73% | 1017.7 hPa | 0 mm | - | - | - |
| 1777628190 | 18.33° C | 74% | 1017.6 hPa | 0 mm | - | - | - |
| 1777627566 | 18.33° C | 74% | 1017.7 hPa | 0 mm | - | - | - |
| 1777626990 | 18.89° C | 73% | 1017.7 hPa | 0 mm | - | - | - |
| 1777626366 | 18.89° C | 73% | 1017.7 hPa | 0 mm | - | - | - |
* Rain latest hour (hover to see other rain measurements)
** Current wind speed in m/s (hover to see current wind gust speed)